Home > Weather > Qikiqtarjuaq > Past weeks

Flag for Canada Past Weather in Qikiqtarjuaq, Nunavut, Canada — Yesterday and Last 2 Weeks

Now
30 °F

Overcast.


Feels Like: 23 °F
Forecast: 20 / 31 °F
Wind: 7 mph from Southwest

Location: Broughton Island Airport

Current Time: May 31, 2016 at 9:57:35 PM

Latest Report: May 31, 2016 at 9:00 PM


Visibility: 9 mi

Pressure: 30.18 "Hg

Humidity: 86%

Dew Point: 27 °F

Location of QikiqtarjuaqLocation

Past Weather in Qikiqtarjuaq — Graph

°F

Qikiqtarjuaq Temperature Yesterday

Maximum temperature yesterday: 30 °F (at 3:00 PM)
Minimum temperature yesterday: 23 °F (at 12:00 AM)
Average temperature yesterday: 27 °F

High & Low Weather Summary for the Past Weeks

 TemperatureHumidityPressure
High36 °F (May 17, 9:00 AM)100% (May 20, 4:00 AM)30.19 "Hg (May 20, 4:00 AM)
Low21 °F (May 21, 6:00 AM)51% (May 17, 10:00 PM)29.37 "Hg (May 21, 2:00 AM)
Average28 °F85%29.76 "Hg
* Reported May 16 8:00 PM — May 31 8:00 PM, Qikiqtarjuaq, Weather by CustomWeather, © 2016

Note: Actual official high and low records may vary slightly from our data, if they occured in-between our weather recording intervals... More about our weather records

Advertising

Qikiqtarjuaq Weather History for the Previous 24 Hours

Scroll right to see more
 ConditionsComfort  
Time TempWeatherWind HumidityBarometerVisibility
8:00 PM
Tue, May 31
30 °FOvercast.5 mph86%30.18 "Hg9 mi
7:00 PM30 °FOvercast.7 mph86%30.18 "Hg9 mi
6:00 PM30 °FMore clouds than sun.5 mph86%30.18 "Hg15 mi
5:00 PM32 °FLow clouds.3 mph75%30.17 "Hg15 mi
4:00 PM30 °FOvercast.3 mph80%30.17 "Hg15 mi
3:00 PM32 °FOvercast.2 mph75%30.17 "Hg15 mi
2:47 PM32 °FOvercast.3 mph75%30.17 "Hg15 mi
2:00 PM32 °FSnow flurries. More clouds than sun.2 mph75%30.17 "Hg8 mi
1:00 PM32 °FLight snow. Mostly cloudy.3 mph75%30.17 "Hg12 mi
12:00 PM30 °FLow clouds.2 mph75%30.17 "Hg15 mi
11:00 AM30 °FLow clouds.6 mph80%30.18 "Hg15 mi
10:00 AM30 °FLow clouds.5 mph80%30.18 "Hg15 mi
9:00 AM28 °FLow clouds.3 mph80%30.19 "Hg15 mi
8:00 AM28 °FOvercast.3 mph80%30.19 "Hg15 mi
7:00 AM28 °FOvercast.3 mph80%30.18 "Hg9 mi
6:00 AM27 °FOvercast.2 mph86%30.18 "Hg9 mi
5:00 AM27 °FMore clouds than sun.No wind86%30.17 "Hg9 mi
4:00 AM27 °FMostly cloudy.5 mph86%30.17 "Hg9 mi
3:00 AM27 °FOvercast.7 mph86%30.17 "Hg9 mi
2:00 AM27 °FOvercast.5 mph86%30.17 "Hg9 mi
1:00 AM27 °FOvercast.2 mph80%30.17 "Hg9 mi
12:00 AM28 °FOvercast.No wind74%30.18 "Hg9 mi
11:00 PM
Mon, May 30
28 °FOvercast.3 mph74%30.18 "Hg9 mi
10:00 PM28 °FOvercast.5 mph74%30.18 "Hg9 mi
9:00 PM28 °FOvercast.8 mph80%30.18 "Hg9 mi
Weather by CustomWeather, © 2016

See weather overviewHow to use our weather pages